| time (UTC) | temp F | wind direction | speed MPH | gust MPH | rain 1hr in | rain 24hr in | rain mn in | humidity % | barometer mb |
| 20260904204001 | 72 | 251 | 2.0 | 0.0 | 0.00 | 0.00 | 0.00 | 58 | 1016.6 |
| 20260904203502 | 73 | 240 | 3.0 | 0.0 | 0.00 | 0.00 | 0.00 | 56 | 1016.6 |
| 20260904203002 | 73 | 245 | 3.0 | 0.0 | 0.00 | 0.00 | 0.00 | 55 | 1016.5 |
| 20260904202501 | 73 | 240 | 2.0 | 0.0 | 0.00 | 0.00 | 0.00 | 55 | 1016.6 |
| 20260904202001 | 75 | 0 | 0.0 | 0.0 | 0.00 | 0.00 | 0.00 | 53 | 1016.6 |
| 20260904201502 | 74 | 282 | 4.0 | 0.0 | 0.00 | 0.00 | 0.00 | 54 | 1016.4 |
| 20260904201001 | 74 | 253 | 2.0 | 0.0 | 0.00 | 0.00 | 0.00 | 55 | 1016.5 |
| 20260904200502 | 74 | 243 | 2.0 | 0.0 | 0.00 | 0.00 | 0.00 | 54 | 1016.5 |
| 20260904200002 | 74 | 264 | 4.0 | 0.0 | 0.00 | 0.00 | 0.00 | 54 | 1016.4 |
| 20260904195501 | 75 | 240 | 2.0 | 0.0 | 0.00 | 0.00 | 0.00 | 53 | 1016.4 |
| 20260904195002 | 75 | 265 | 5.0 | 0.0 | 0.00 | 0.00 | 0.00 | 52 | 1016.5 |
| 20260904194502 | 75 | 241 | 2.0 | 0.0 | 0.00 | 0.00 | 0.00 | 52 | 1016.4 |
| 20260904194001 | 75 | 247 | 1.0 | 0.0 | 0.00 | 0.00 | 0.00 | 53 | 1016.3 |
| 20260904193502 | 76 | 283 | 2.0 | 0.0 | 0.00 | 0.00 | 0.00 | 52 | 1016.4 |
| 20260904193002 | 76 | 249 | 1.0 | 0.0 | 0.00 | 0.00 | 0.00 | 51 | 1016.2 |
| 20260904192501 | 77 | 243 | 3.0 | 0.0 | 0.00 | 0.00 | 0.00 | 50 | 1016.2 |
| 20260904192002 | 77 | 265 | 1.0 | 0.0 | 0.00 | 0.00 | 0.00 | 50 | 1016.1 |
| 20260904191502 | 77 | 263 | 4.0 | 0.0 | 0.00 | 0.00 | 0.00 | 49 | 1016.0 |
| 20260904191001 | 77 | 270 | 3.0 | 0.0 | 0.00 | 0.00 | 0.00 | 49 | 1016.0 |
| 20260904190502 | 77 | 249 | 3.0 | 0.0 | 0.00 | 0.00 | 0.00 | 49 | 1015.9 |
| 20260904190002 | 77 | 245 | 3.0 | 0.0 | 0.00 | 0.00 | 0.00 | 51 | 1015.8 |
| 20260904185501 | 76 | 241 | 5.0 | 0.0 | 0.00 | 0.00 | 0.00 | 52 | 1015.8 |
| 20260904185002 | 75 | 251 | 6.0 | 0.0 | 0.00 | 0.00 | 0.00 | 55 | 1015.8 |
| 20260904184502 | 74 | 264 | 3.0 | 0.0 | 0.00 | 0.00 | 0.00 | 58 | 1015.7 |
| 20260904184001 | 74 | 241 | 5.0 | 0.0 | 0.00 | 0.00 | 0.00 | 57 | 1015.7 |
| 20260904183501 | 75 | 245 | 5.0 | 0.0 | 0.00 | 0.00 | 0.00 | 55 | 1015.6 |
| 20260904183002 | 76 | 241 | 3.0 | 0.0 | 0.00 | 0.00 | 0.00 | 53 | 1015.6 |
| 20260904182501 | 76 | 243 | 5.0 | 0.0 | 0.00 | 0.00 | 0.00 | 53 | 1015.5 |
| 20260904182002 | 76 | 243 | 3.0 | 0.0 | 0.00 | 0.00 | 0.00 | 53 | 1015.5 |
| 20260904181501 | 76 | 251 | 3.0 | 0.0 | 0.00 | 0.00 | 0.00 | 52 | 1015.4 |
| 20260904181002 | 76 | 244 | 2.0 | 0.0 | 0.00 | 0.00 | 0.00 | 52 | 1015.3 |
| 20260904180501 | 77 | 241 | 3.0 | 0.0 | 0.00 | 0.00 | 0.00 | 52 | 1015.3 |
| 20260904180001 | 77 | 244 | 2.0 | 0.0 | 0.00 | 0.00 | 0.00 | 51 | 1015.2 |
| 20260904175502 | 77 | 245 | 3.0 | 0.0 | 0.00 | 0.00 | 0.00 | 50 | 1015.2 |
| 20260904175001 | 78 | 242 | 4.0 | 0.0 | 0.00 | 0.00 | 0.00 | 49 | 1015.1 |
| 20260904174502 | 78 | 243 | 4.0 | 0.0 | 0.00 | 0.00 | 0.00 | 49 | 1015.0 |
| 20260904174001 | 79 | 243 | 3.0 | 0.0 | 0.00 | 0.00 | 0.00 | 48 | 1014.9 |
| 20260904173502 | 79 | 245 | 3.0 | 0.0 | 0.00 | 0.00 | 0.00 | 48 | 1015.0 |
| 20260904173001 | 80 | 247 | 3.0 | 0.0 | 0.00 | 0.00 | 0.00 | 46 | 1015.0 |
| 20260904172502 | 80 | 245 | 4.0 | 0.0 | 0.00 | 0.00 | 0.00 | 46 | 1015.0 |
| 20260904172001 | 81 | 249 | 2.0 | 0.0 | 0.00 | 0.00 | 0.00 | 43 | 1015.0 |
| 20260904171502 | 81 | 248 | 5.0 | 0.0 | 0.00 | 0.00 | 0.00 | 42 | 1014.9 |
| 20260904171002 | 81 | 252 | 3.0 | 0.0 | 0.00 | 0.00 | 0.00 | 42 | 1014.9 |
| 20260904170501 | 82 | 258 | 6.0 | 0.0 | 0.00 | 0.00 | 0.00 | 42 | 1014.9 |
| 20260904170004 | 82 | 248 | 8.0 | 0.0 | 0.00 | 0.00 | 0.00 | 41 | 1014.8 |
| 20260904165501 | 82 | 206 | 3.0 | 0.0 | 0.00 | 0.00 | 0.00 | 40 | 1014.9 |
| 20260904165002 | 82 | 254 | 4.0 | 0.0 | 0.00 | 0.00 | 0.00 | 39 | 1015.0 |
| 20260904164501 | 82 | 243 | 8.0 | 0.0 | 0.00 | 0.00 | 0.00 | 40 | 1014.9 |
| 20260904164002 | 83 | 256 | 6.0 | 0.0 | 0.00 | 0.00 | 0.00 | 39 | 1015.0 |
| 20260904163501 | 83 | 237 | 4.0 | 0.0 | 0.00 | 0.00 | 0.00 | 40 | 1014.9 |
| 20260904163002 | 83 | 263 | 4.0 | 0.0 | 0.00 | 0.00 | 0.00 | 39 | 1015.1 |
| 20260904162502 | 83 | 238 | 7.0 | 0.0 | 0.00 | 0.00 | 0.00 | 39 | 1015.1 |
| 20260904162002 | 83 | 250 | 4.0 | 0.0 | 0.00 | 0.00 | 0.00 | 39 | 1015.0 |
| 20260904161502 | 83 | 242 | 6.0 | 0.0 | 0.00 | 0.00 | 0.00 | 39 | 1015.0 |
| 20260904161002 | 83 | 269 | 8.0 | 0.0 | 0.00 | 0.00 | 0.00 | 39 | 1015.1 |
| 20260904160502 | 83 | 262 | 6.0 | 0.0 | 0.00 | 0.00 | 0.00 | 40 | 1015.2 |
| 20260904160001 | 83 | 244 | 10.0 | 0.0 | 0.00 | 0.00 | 0.00 | 40 | 1015.2 |
| 20260904155502 | 83 | 240 | 7.0 | 0.0 | 0.00 | 0.00 | 0.00 | 39 | 1015.2 |
| 20260904155001 | 83 | 248 | 4.0 | 0.0 | 0.00 | 0.00 | 0.00 | 39 | 1015.3 |
| 20260904154502 | 83 | 243 | 7.0 | 0.0 | 0.00 | 0.00 | 0.00 | 39 | 1015.3 |
| 20260904154002 | 83 | 257 | 6.0 | 0.0 | 0.00 | 0.00 | 0.00 | 39 | 1015.3 |
| 20260904153501 | 83 | 240 | 6.0 | 0.0 | 0.00 | 0.00 | 0.00 | 40 | 1015.5 |
| 20260904153002 | 83 | 253 | 5.0 | 0.0 | 0.00 | 0.00 | 0.00 | 36 | 1015.5 |
| 20260904152501 | 83 | 275 | 14.0 | 0.0 | 0.00 | 0.00 | 0.00 | 37 | 1015.5 |
| 20260904152002 | 83 | 308 | 6.0 | 0.0 | 0.00 | 0.00 | 0.00 | 37 | 1015.6 |
| 20260904151501 | 84 | 226 | 6.0 | 0.0 | 0.00 | 0.00 | 0.00 | 37 | 1015.7 |
| 20260904151002 | 84 | 239 | 2.0 | 0.0 | 0.00 | 0.00 | 0.00 | 39 | 1015.6 |
| 20260904150501 | 83 | 239 | 11.0 | 0.0 | 0.00 | 0.00 | 0.00 | 37 | 1015.7 |
| 20260904150003 | 83 | 284 | 7.0 | 0.0 | 0.00 | 0.00 | 0.00 | 37 | 1015.8 |
| 20260904145502 | 83 | 287 | 8.0 | 0.0 | 0.00 | 0.00 | 0.00 | 37 | 1015.8 |
| 20260904145002 | 83 | 241 | 5.0 | 0.0 | 0.00 | 0.00 | 0.00 | 37 | 1015.8 |
| 20260904144502 | 83 | 251 | 4.0 | 0.0 | 0.00 | 0.00 | 0.00 | 37 | 1015.8 |
| 20260904144001 | 83 | 260 | 11.0 | 0.0 | 0.00 | 0.00 | 0.00 | 38 | 1016.0 |
| 20260904143502 | 83 | 300 | 3.0 | 0.0 | 0.00 | 0.00 | 0.00 | 37 | 1016.0 |
| 20260904143001 | 82 | 285 | 7.0 | 0.0 | 0.00 | 0.00 | 0.00 | 37 | 1016.0 |
| 20260904142503 | 83 | 242 | 7.0 | 0.0 | 0.00 | 0.00 | 0.00 | 37 | 1016.0 |
| 20260904142001 | 82 | 266 | 8.0 | 0.0 | 0.00 | 0.00 | 0.00 | 38 | 1016.1 |
| 20260904141501 | 82 | 303 | 13.0 | 0.0 | 0.00 | 0.00 | 0.00 | 38 | 1016.1 |
| 20260904141002 | 82 | 283 | 9.0 | 0.0 | 0.00 | 0.00 | 0.00 | 38 | 1016.2 |
| 20260904140502 | 82 | 312 | 7.0 | 0.0 | 0.00 | 0.00 | 0.00 | 39 | 1016.3 |
| 20260904140002 | 83 | 272 | 5.0 | 0.0 | 0.00 | 0.00 | 0.00 | 39 | 1016.3 |
| 20260904135501 | 82 | 257 | 6.0 | 0.0 | 0.00 | 0.00 | 0.00 | 40 | 1016.4 |
| 20260904135002 | 82 | 268 | 7.0 | 0.0 | 0.00 | 0.00 | 0.00 | 39 | 1016.4 |
| 20260904134502 | 82 | 255 | 5.0 | 0.0 | 0.00 | 0.00 | 0.00 | 40 | 1016.4 |
| 20260904134002 | 82 | 278 | 8.0 | 0.0 | 0.00 | 0.00 | 0.00 | 40 | 1016.5 |
| 20260904133501 | 82 | 262 | 6.0 | 0.0 | 0.00 | 0.00 | 0.00 | 41 | 1016.5 |
| 20260904133002 | 81 | 297 | 4.0 | 0.0 | 0.00 | 0.00 | 0.00 | 40 | 1016.5 |
| 20260904132501 | 81 | 280 | 11.0 | 0.0 | 0.00 | 0.00 | 0.00 | 40 | 1016.6 |
| 20260904132002 | 81 | 249 | 4.0 | 0.0 | 0.00 | 0.00 | 0.00 | 42 | 1016.6 |
| 20260904131503 | 81 | 240 | 6.0 | 0.0 | 0.00 | 0.00 | 0.00 | 42 | 1016.8 |
| 20260904131001 | 80 | 253 | 9.0 | 0.0 | 0.00 | 0.00 | 0.00 | 40 | 1016.7 |
| 20260904130502 | 80 | 286 | 15.0 | 0.0 | 0.00 | 0.00 | 0.00 | 40 | 1016.7 |
| 20260904130001 | 80 | 288 | 13.0 | 0.0 | 0.00 | 0.00 | 0.00 | 42 | 1016.8 |
| 20260904125503 | 80 | 252 | 8.0 | 0.0 | 0.00 | 0.00 | 0.00 | 43 | 1016.8 |
| 20260904125002 | 80 | 238 | 9.0 | 0.0 | 0.00 | 0.00 | 0.00 | 43 | 1016.9 |
| 20260904124502 | 80 | 298 | 8.0 | 0.0 | 0.00 | 0.00 | 0.00 | 41 | 1017.0 |
| 20260904124001 | 80 | 267 | 7.0 | 0.0 | 0.00 | 0.00 | 0.00 | 45 | 1017.1 |
| 20260904123502 | 80 | 262 | 5.0 | 0.0 | 0.00 | 0.00 | 0.00 | 42 | 1017.1 |
| 20260904123003 | 80 | 241 | 9.0 | 0.0 | 0.00 | 0.00 | 0.00 | 43 | 1017.1 |
| 20260904122501 | 80 | 265 | 4.0 | 0.0 | 0.00 | 0.00 | 0.00 | 45 | 1017.2 |
| 20260904122003 | 79 | 226 | 5.0 | 0.0 | 0.00 | 0.00 | 0.00 | 44 | 1017.2 |
| 20260904121501 | 80 | 238 | 12.0 | 0.0 | 0.00 | 0.00 | 0.00 | 44 | 1017.3 |
| 20260904121002 | 80 | 238 | 6.0 | 0.0 | 0.00 | 0.00 | 0.00 | 46 | 1017.4 |
| 20260904120501 | 80 | 244 | 10.0 | 0.0 | 0.00 | 0.00 | 0.00 | 44 | 1017.4 |
| 20260904120002 | 79 | 178 | 0.0 | 0.0 | 0.00 | 0.00 | 0.00 | 44 | 1017.5 |
| 20260904115501 | 79 | 241 | 6.0 | 0.0 | 0.00 | 0.00 | 0.00 | 45 | 1017.5 |
| 20260904115002 | 79 | 245 | 6.0 | 0.0 | 0.00 | 0.00 | 0.00 | 45 | 1017.6 |
| 20260904114502 | 78 | 253 | 4.0 | 0.0 | 0.00 | 0.00 | 0.00 | 45 | 1017.7 |
| 20260904114001 | 78 | 228 | 3.0 | 0.0 | 0.00 | 0.00 | 0.00 | 45 | 1017.8 |
| 20260904113502 | 79 | 249 | 7.0 | 0.0 | 0.00 | 0.00 | 0.00 | 46 | 1017.7 |
| 20260904113001 | 78 | 247 | 7.0 | 0.0 | 0.00 | 0.00 | 0.00 | 46 | 1017.8 |
| 20260904112502 | 77 | 238 | 7.0 | 0.0 | 0.00 | 0.00 | 0.00 | 47 | 1017.9 |
| 20260904112001 | 77 | 240 | 6.0 | 0.0 | 0.00 | 0.00 | 0.00 | 46 | 1018.0 |
| 20260904111502 | 78 | 250 | 9.0 | 0.0 | 0.00 | 0.00 | 0.00 | 46 | 1018.1 |
| 20260904111001 | 77 | 236 | 7.0 | 0.0 | 0.00 | 0.00 | 0.00 | 46 | 1018.1 |
| 20260904110503 | 77 | 258 | 5.0 | 0.0 | 0.00 | 0.00 | 0.00 | 46 | 1018.3 |
| 20260904110001 | 77 | 255 | 9.0 | 0.0 | 0.00 | 0.00 | 0.00 | 45 | 1018.3 |
| 20260904105501 | 77 | 289 | 8.0 | 0.0 | 0.00 | 0.00 | 0.00 | 48 | 1018.3 |
| 20260904105002 | 76 | 231 | 9.0 | 0.0 | 0.00 | 0.00 | 0.00 | 47 | 1018.5 |
| 20260904104501 | 76 | 225 | 7.0 | 0.0 | 0.00 | 0.00 | 0.00 | 47 | 1018.6 |
| 20260904104002 | 75 | 208 | 7.0 | 0.0 | 0.00 | 0.00 | 0.00 | 49 | 1018.8 |
| 20260904103501 | 76 | 224 | 9.0 | 0.0 | 0.00 | 0.00 | 0.00 | 50 | 1018.6 |
| 20260904103002 | 75 | 263 | 4.0 | 0.0 | 0.00 | 0.00 | 0.00 | 50 | 1018.9 |
| 20260904102502 | 76 | 212 | 7.0 | 0.0 | 0.00 | 0.00 | 0.00 | 50 | 1018.7 |
| 20260904102002 | 75 | 259 | 4.0 | 0.0 | 0.00 | 0.00 | 0.00 | 50 | 1018.9 |
| 20260904101501 | 75 | 268 | 4.0 | 0.0 | 0.00 | 0.00 | 0.00 | 52 | 1018.9 |
| 20260904101001 | 74 | 207 | 8.0 | 0.0 | 0.00 | 0.00 | 0.00 | 51 | 1018.9 |
| 20260904100501 | 74 | 226 | 5.0 | 0.0 | 0.00 | 0.00 | 0.00 | 52 | 1019.0 |
| 20260904100002 | 74 | 223 | 4.0 | 0.0 | 0.00 | 0.00 | 0.00 | 52 | 1019.2 |
| 20260904095502 | 74 | 247 | 7.0 | 0.0 | 0.00 | 0.00 | 0.00 | 54 | 1019.2 |
| 20260904095001 | 73 | 213 | 6.0 | 0.0 | 0.00 | 0.00 | 0.00 | 53 | 1019.3 |
| 20260904094502 | 73 | 207 | 4.0 | 0.0 | 0.00 | 0.00 | 0.00 | 53 | 1019.4 |
| 20260904094001 | 73 | 197 | 3.0 | 0.0 | 0.00 | 0.00 | 0.00 | 54 | 1019.4 |
| 20260904093502 | 73 | 218 | 9.0 | 0.0 | 0.00 | 0.00 | 0.00 | 55 | 1019.5 |
| 20260904093001 | 73 | 261 | 5.0 | 0.0 | 0.00 | 0.00 | 0.00 | 55 | 1019.6 |
| 20260904092501 | 72 | 284 | 2.0 | 0.0 | 0.00 | 0.00 | 0.00 | 56 | 1019.6 |
| 20260904092001 | 72 | 239 | 7.0 | 0.0 | 0.00 | 0.00 | 0.00 | 56 | 1019.6 |
| 20260904091501 | 72 | 212 | 9.0 | 0.0 | 0.00 | 0.00 | 0.00 | 57 | 1019.7 |
| 20260904091002 | 71 | 238 | 6.0 | 0.0 | 0.00 | 0.00 | 0.00 | 57 | 1019.8 |
| 20260904090501 | 72 | 219 | 4.0 | 0.0 | 0.00 | 0.00 | 0.00 | 57 | 1019.8 |
| 20260904090002 | 71 | 203 | 4.0 | 0.0 | 0.00 | 0.00 | 0.00 | 58 | 1019.7 |
| 20260904085501 | 71 | 206 | 3.0 | 0.0 | 0.00 | 0.00 | 0.00 | 59 | 1019.8 |
| 20260904085002 | 71 | 211 | 6.0 | 0.0 | 0.00 | 0.00 | 0.00 | 58 | 1019.9 |
| 20260904084501 | 70 | 281 | 1.0 | 0.0 | 0.00 | 0.00 | 0.00 | 61 | 1019.7 |
| 20260904084002 | 70 | 209 | 7.0 | 0.0 | 0.00 | 0.00 | 0.00 | 61 | 1019.7 |
| 20260904083501 | 69 | 229 | 7.0 | 0.0 | 0.00 | 0.00 | 0.00 | 62 | 1019.8 |
| 20260904083001 | 70 | 204 | 7.0 | 0.0 | 0.00 | 0.00 | 0.00 | 60 | 1019.7 |
| 20260904082502 | 70 | 213 | 2.0 | 0.0 | 0.00 | 0.00 | 0.00 | 61 | 1019.7 |
| 20260904082002 | 70 | 198 | 6.0 | 0.0 | 0.00 | 0.00 | 0.00 | 63 | 1019.9 |
| 20260904081502 | 69 | 241 | 4.0 | 0.0 | 0.00 | 0.00 | 0.00 | 62 | 1019.9 |
| 20260904081002 | 69 | 209 | 6.0 | 0.0 | 0.00 | 0.00 | 0.00 | 64 | 1020.0 |
| 20260904080502 | 69 | 189 | 2.0 | 0.0 | 0.00 | 0.00 | 0.00 | 63 | 1019.9 |
| 20260904080001 | 69 | 189 | 2.0 | 0.0 | 0.00 | 0.00 | 0.00 | 64 | 1019.9 |
| 20260904075502 | 68 | 189 | 2.0 | 0.0 | 0.00 | 0.00 | 0.00 | 65 | 1019.9 |
| 20260904075001 | 67 | 212 | 7.0 | 0.0 | 0.00 | 0.00 | 0.00 | 67 | 1019.9 |
| 20260904074501 | 67 | 212 | 7.0 | 0.0 | 0.00 | 0.00 | 0.00 | 67 | 1019.9 |
| 20260904074002 | 67 | 198 | 5.0 | 0.0 | 0.00 | 0.00 | 0.00 | 67 | 1020.0 |
| 20260904073501 | 67 | 193 | 5.0 | 0.0 | 0.00 | 0.00 | 0.00 | 67 | 1020.1 |
| 20260904073002 | 67 | 205 | 5.0 | 0.0 | 0.00 | 0.00 | 0.00 | 67 | 1020.0 |
| 20260904072501 | 66 | 242 | 5.0 | 0.0 | 0.00 | 0.00 | 0.00 | 67 | 1020.2 |
| 20260904072002 | 67 | 219 | 5.0 | 0.0 | 0.00 | 0.00 | 0.00 | 66 | 1020.2 |
| 20260904071501 | 66 | 229 | 3.0 | 0.0 | 0.00 | 0.00 | 0.00 | 68 | 1020.3 |
| 20260904071001 | 66 | 206 | 5.0 | 0.0 | 0.00 | 0.00 | 0.00 | 68 | 1020.2 |
| 20260904070501 | 66 | 208 | 7.0 | 0.0 | 0.00 | 0.00 | 0.00 | 66 | 1020.2 |
| 20260904070001 | 66 | 220 | 4.0 | 0.0 | 0.00 | 0.00 | 0.00 | 66 | 1020.1 |
| 20260904065502 | 66 | 205 | 0.0 | 0.0 | 0.00 | 0.00 | 0.00 | 66 | 1020.3 |
| 20260904065002 | 66 | 209 | 4.0 | 0.0 | 0.00 | 0.00 | 0.00 | 67 | 1020.3 |
| 20260904064502 | 65 | 228 | 5.0 | 0.0 | 0.00 | 0.00 | 0.00 | 67 | 1020.2 |
| 20260904064001 | 65 | 243 | 4.0 | 0.0 | 0.00 | 0.00 | 0.00 | 67 | 1020.1 |
| 20260904063002 | 65 | 219 | 4.0 | 0.0 | 0.00 | 0.00 | 0.00 | 67 | 1020.2 |
| 20260904062502 | 64 | 246 | 2.0 | 0.0 | 0.00 | 0.00 | 0.00 | 68 | 1020.2 |
| 20260904062002 | 64 | 239 | 3.0 | 0.0 | 0.00 | 0.00 | 0.00 | 70 | 1020.2 |
| 20260904061501 | 63 | 242 | 3.0 | 0.0 | 0.00 | 0.00 | 0.00 | 69 | 1020.2 |
| 20260904061002 | 63 | 266 | 3.0 | 0.0 | 0.00 | 0.00 | 0.00 | 69 | 1020.2 |
| 20260904060501 | 63 | 243 | 3.0 | 0.0 | 0.00 | 0.00 | 0.00 | 71 | 1020.2 |
| 20260904060002 | 62 | 224 | 2.0 | 0.0 | 0.00 | 0.00 | 0.00 | 72 | 1020.1 |
| 20260904055501 | 62 | 266 | 1.0 | 0.0 | 0.00 | 0.00 | 0.00 | 72 | 1020.2 |
| 20260904055002 | 62 | 251 | 2.0 | 0.0 | 0.00 | 0.00 | 0.00 | 71 | 1020.3 |
| 20260904054501 | 61 | 259 | 4.0 | 0.0 | 0.00 | 0.00 | 0.00 | 72 | 1020.1 |
| 20260904054001 | 61 | 244 | 3.0 | 0.0 | 0.00 | 0.00 | 0.00 | 72 | 1020.1 |
| 20260904053502 | 61 | 244 | 3.0 | 0.0 | 0.00 | 0.00 | 0.00 | 73 | 1020.1 |
| 20260904053001 | 60 | 239 | 2.0 | 0.0 | 0.00 | 0.00 | 0.00 | 73 | 1020.2 |
| 20260904052502 | 60 | 245 | 3.0 | 0.0 | 0.00 | 0.00 | 0.00 | 73 | 1020.1 |
| 20260904052001 | 60 | 273 | 4.0 | 0.0 | 0.00 | 0.00 | 0.00 | 74 | 1020.1 |
| 20260904051502 | 60 | 240 | 4.0 | 0.0 | 0.00 | 0.00 | 0.00 | 74 | 1020.0 |
| 20260904051001 | 60 | 253 | 2.0 | 0.0 | 0.00 | 0.00 | 0.00 | 74 | 1020.1 |
| 20260904050502 | 60 | 250 | 4.0 | 0.0 | 0.00 | 0.00 | 0.00 | 74 | 1020.1 |
| 20260904050001 | 60 | 239 | 3.0 | 0.0 | 0.00 | 0.00 | 0.00 | 73 | 1020.3 |
| 20260904045501 | 60 | 247 | 2.0 | 0.0 | 0.00 | 0.00 | 0.00 | 73 | 1020.2 |
| 20260904045001 | 60 | 275 | 2.0 | 0.0 | 0.00 | 0.00 | 0.00 | 74 | 1020.2 |
| 20260904044501 | 60 | 234 | 1.0 | 0.0 | 0.00 | 0.00 | 0.00 | 74 | 1020.3 |
| 20260904044002 | 60 | 292 | 3.0 | 0.0 | 0.00 | 0.00 | 0.00 | 74 | 1020.4 |
| 20260904043502 | 60 | 277 | 1.0 | 0.0 | 0.00 | 0.00 | 0.00 | 75 | 1020.4 |
| 20260904043002 | 60 | 304 | 1.0 | 0.0 | 0.00 | 0.00 | 0.00 | 74 | 1020.4 |
| 20260904042501 | 59 | 250 | 3.0 | 0.0 | 0.00 | 0.00 | 0.00 | 76 | 1020.4 |
| 20260904042002 | 59 | 242 | 1.0 | 0.0 | 0.00 | 0.00 | 0.00 | 78 | 1020.5 |
| 20260904041501 | 59 | 200 | 2.0 | 0.0 | 0.00 | 0.00 | 0.00 | 77 | 1020.5 |
| 20260904041001 | 60 | 242 | 2.0 | 0.0 | 0.00 | 0.00 | 0.00 | 75 | 1020.6 |
| 20260904040502 | 61 | 262 | 2.0 | 0.0 | 0.00 | 0.00 | 0.00 | 73 | 1020.7 |
| 20260904040001 | 60 | 275 | 0.0 | 0.0 | 0.00 | 0.00 | 0.00 | 74 | 1020.8 |
| 20260904035501 | 61 | 276 | 1.0 | 0.0 | 0.00 | 0.00 | 0.00 | 73 | 1020.8 |
| 20260904035002 | 61 | 275 | 1.0 | 0.0 | 0.00 | 0.00 | 0.00 | 73 | 1020.8 |
| 20260904034502 | 61 | 323 | 2.0 | 0.0 | 0.00 | 0.00 | 0.00 | 73 | 1020.9 |
| 20260904034001 | 60 | 243 | 1.0 | 0.0 | 0.00 | 0.00 | 0.00 | 75 | 1020.6 |
| 20260904033502 | 61 | 252 | 2.0 | 0.0 | 0.00 | 0.00 | 0.00 | 74 | 1020.7 |
| 20260904033001 | 61 | 242 | 3.0 | 0.0 | 0.00 | 0.00 | 0.00 | 74 | 1020.6 |
| 20260904032501 | 61 | 272 | 2.0 | 0.0 | 0.00 | 0.00 | 0.00 | 74 | 1020.7 |
| 20260904032002 | 62 | 260 | 4.0 | 0.0 | 0.00 | 0.00 | 0.00 | 73 | 1020.8 |
| 20260904031501 | 62 | 231 | 1.0 | 0.0 | 0.00 | 0.00 | 0.00 | 73 | 1020.8 |
| 20260904031001 | 62 | 244 | 2.0 | 0.0 | 0.00 | 0.00 | 0.00 | 73 | 1020.9 |
| 20260904030502 | 62 | 267 | 3.0 | 0.0 | 0.00 | 0.00 | 0.00 | 73 | 1020.8 |
| 20260904030001 | 61 | 262 | 3.0 | 0.0 | 0.00 | 0.00 | 0.00 | 74 | 1020.8 |
| 20260904025501 | 62 | 255 | 3.0 | 0.0 | 0.00 | 0.00 | 0.00 | 74 | 1020.8 |
| 20260904025002 | 62 | 240 | 2.0 | 0.0 | 0.00 | 0.00 | 0.00 | 74 | 1020.8 |
| 20260904024501 | 62 | 252 | 3.0 | 0.0 | 0.00 | 0.00 | 0.00 | 74 | 1020.9 |
| 20260904024001 | 62 | 241 | 4.0 | 0.0 | 0.00 | 0.00 | 0.00 | 74 | 1020.9 |
| 20260904023502 | 62 | 245 | 2.0 | 0.0 | 0.00 | 0.00 | 0.00 | 74 | 1021.0 |
| 20260904023001 | 61 | 256 | 3.0 | 0.0 | 0.00 | 0.00 | 0.00 | 75 | 1021.0 |
| 20260904022502 | 62 | 240 | 5.0 | 0.0 | 0.00 | 0.00 | 0.00 | 75 | 1021.0 |
| 20260904022002 | 62 | 238 | 5.0 | 0.0 | 0.00 | 0.00 | 0.00 | 75 | 1021.0 |
| 20260904021501 | 62 | 241 | 2.0 | 0.0 | 0.00 | 0.00 | 0.00 | 74 | 1021.0 |
| 20260904021002 | 62 | 244 | 4.0 | 0.0 | 0.00 | 0.00 | 0.00 | 74 | 1021.2 |
| 20260904020502 | 62 | 246 | 4.0 | 0.0 | 0.00 | 0.00 | 0.00 | 74 | 1021.1 |
| 20260904020001 | 62 | 244 | 3.0 | 0.0 | 0.00 | 0.00 | 0.00 | 74 | 1021.0 |
| 20260904015501 | 62 | 254 | 4.0 | 0.0 | 0.00 | 0.00 | 0.00 | 74 | 1021.1 |
| 20260904015002 | 62 | 217 | 4.0 | 0.0 | 0.00 | 0.00 | 0.00 | 74 | 1021.0 |
| 20260904014501 | 62 | 239 | 4.0 | 0.0 | 0.00 | 0.00 | 0.00 | 74 | 1021.0 |
| 20260904014002 | 62 | 239 | 5.0 | 0.0 | 0.00 | 0.00 | 0.00 | 74 | 1021.1 |
| 20260904013502 | 62 | 239 | 4.0 | 0.0 | 0.00 | 0.00 | 0.00 | 74 | 1021.2 |
| 20260904013001 | 62 | 239 | 3.0 | 0.0 | 0.00 | 0.00 | 0.00 | 74 | 1021.3 |
| 20260904012501 | 63 | 237 | 5.0 | 0.0 | 0.00 | 0.00 | 0.00 | 74 | 1021.4 |
| 20260904012002 | 62 | 241 | 3.0 | 0.0 | 0.00 | 0.00 | 0.00 | 75 | 1021.4 |
| 20260904011501 | 62 | 244 | 3.0 | 0.0 | 0.00 | 0.00 | 0.00 | 75 | 1021.4 |
| 20260904011002 | 63 | 246 | 4.0 | 0.0 | 0.00 | 0.00 | 0.00 | 74 | 1021.4 |
| 20260904010502 | 63 | 252 | 4.0 | 0.0 | 0.00 | 0.00 | 0.00 | 74 | 1021.4 |
| 20260904010001 | 62 | 233 | 4.0 | 0.0 | 0.00 | 0.00 | 0.00 | 75 | 1021.4 |
| 20260904005501 | 62 | 239 | 5.0 | 0.0 | 0.00 | 0.00 | 0.00 | 74 | 1021.5 |
| 20260904005002 | 63 | 248 | 3.0 | 0.0 | 0.00 | 0.00 | 0.00 | 74 | 1021.5 |
| 20260904004501 | 63 | 244 | 3.0 | 0.0 | 0.00 | 0.00 | 0.00 | 74 | 1021.5 |
| 20260904004001 | 63 | 245 | 4.0 | 0.0 | 0.00 | 0.00 | 0.00 | 74 | 1021.6 |
| 20260904003502 | 63 | 274 | 2.0 | 0.0 | 0.00 | 0.00 | 0.00 | 74 | 1021.6 |
| 20260904003001 | 63 | 253 | 3.0 | 0.0 | 0.00 | 0.00 | 0.00 | 74 | 1021.5 |
| 20260904002502 | 63 | 243 | 3.0 | 0.0 | 0.00 | 0.00 | 0.00 | 74 | 1021.6 |
| 20260904002002 | 63 | 244 | 4.0 | 0.0 | 0.00 | 0.00 | 0.00 | 74 | 1021.5 |
| 20260904001501 | 63 | 241 | 4.0 | 0.0 | 0.00 | 0.00 | 0.00 | 74 | 1021.5 |
| 20260904001001 | 63 | 239 | 4.0 | 0.0 | 0.00 | 0.00 | 0.00 | 74 | 1021.6 |
| 20260904000502 | 62 | 252 | 2.0 | 0.0 | 0.00 | 0.00 | 0.00 | 75 | 1021.6 |
| 20260904000001 | 62 | 243 | 4.0 | 0.0 | 0.00 | 0.00 | 0.00 | 75 | 1021.7 |
| 20260903235501 | 62 | 247 | 3.0 | 0.0 | 0.00 | 0.00 | 0.00 | 75 | 1021.6 |
| 20260903235002 | 62 | 225 | 4.0 | 0.0 | 0.00 | 0.00 | 0.00 | 74 | 1021.7 |
| 20260903234501 | 63 | 240 | 4.0 | 0.0 | 0.00 | 0.00 | 0.00 | 74 | 1021.7 |
| 20260903234001 | 63 | 251 | 1.0 | 0.0 | 0.00 | 0.00 | 0.00 | 73 | 1021.7 |
| 20260903233502 | 63 | 240 | 4.0 | 0.0 | 0.00 | 0.00 | 0.00 | 73 | 1021.7 |
| 20260903233002 | 63 | 261 | 2.0 | 0.0 | 0.00 | 0.00 | 0.00 | 73 | 1021.7 |
| 20260903232501 | 63 | 245 | 4.0 | 0.0 | 0.00 | 0.00 | 0.00 | 73 | 1021.7 |
| 20260903232002 | 63 | 244 | 2.0 | 0.0 | 0.00 | 0.00 | 0.00 | 73 | 1021.8 |
| 20260903231502 | 63 | 235 | 3.0 | 0.0 | 0.00 | 0.00 | 0.00 | 73 | 1021.7 |
| 20260903231001 | 63 | 240 | 4.0 | 0.0 | 0.00 | 0.00 | 0.00 | 74 | 1021.8 |
| 20260903230502 | 63 | 244 | 3.0 | 0.0 | 0.00 | 0.00 | 0.00 | 74 | 1021.8 |
| 20260903230002 | 64 | 243 | 4.0 | 0.0 | 0.00 | 0.00 | 0.00 | 74 | 1021.8 |
| 20260903225501 | 64 | 239 | 4.0 | 0.0 | 0.00 | 0.00 | 0.00 | 74 | 1021.9 |
| 20260903225002 | 63 | 243 | 2.0 | 0.0 | 0.00 | 0.00 | 0.00 | 75 | 1021.9 |
| 20260903224502 | 63 | 270 | 2.0 | 0.0 | 0.00 | 0.00 | 0.00 | 76 | 1022.0 |
| 20260903224001 | 62 | 230 | 2.0 | 0.0 | 0.00 | 0.00 | 0.00 | 77 | 1022.0 |
| 20260903223502 | 62 | 176 | 1.0 | 0.0 | 0.00 | 0.00 | 0.00 | 78 | 1022.0 |
| 20260903223002 | 63 | 188 | 0.0 | 0.0 | 0.00 | 0.00 | 0.00 | 75 | 1022.0 |
| 20260903222501 | 64 | 196 | 4.0 | 0.0 | 0.00 | 0.00 | 0.00 | 73 | 1022.0 |
| 20260903222002 | 64 | 194 | 3.0 | 0.0 | 0.00 | 0.00 | 0.00 | 73 | 1021.9 |
| 20260903221502 | 64 | 161 | 4.0 | 0.0 | 0.00 | 0.00 | 0.00 | 72 | 1022.0 |
| 20260903221001 | 65 | 234 | 2.0 | 0.0 | 0.00 | 0.00 | 0.00 | 69 | 1022.1 |
| 20260903220502 | 65 | 264 | 3.0 | 0.0 | 0.00 | 0.00 | 0.00 | 69 | 1022.1 |
| 20260903220002 | 66 | 246 | 2.0 | 0.0 | 0.00 | 0.00 | 0.00 | 69 | 1022.0 |
| 20260903215501 | 66 | 260 | 2.0 | 0.0 | 0.00 | 0.00 | 0.00 | 69 | 1022.0 |
| 20260903215002 | 66 | 260 | 2.0 | 0.0 | 0.00 | 0.00 | 0.00 | 69 | 1022.0 |
| 20260903214502 | 66 | 256 | 2.0 | 0.0 | 0.00 | 0.00 | 0.00 | 69 | 1021.9 |
| 20260903214001 | 66 | 245 | 1.0 | 0.0 | 0.00 | 0.00 | 0.00 | 68 | 1021.8 |
| 20260903213502 | 66 | 242 | 2.0 | 0.0 | 0.00 | 0.00 | 0.00 | 68 | 1021.8 |
| 20260903213002 | 67 | 240 | 3.0 | 0.0 | 0.00 | 0.00 | 0.00 | 67 | 1021.8 |
| 20260903212501 | 67 | 242 | 2.0 | 0.0 | 0.00 | 0.00 | 0.00 | 68 | 1021.7 |
| 20260903212002 | 66 | 242 | 2.0 | 0.0 | 0.00 | 0.00 | 0.00 | 69 | 1021.8 |
| 20260903211502 | 66 | 293 | 1.0 | 0.0 | 0.00 | 0.00 | 0.00 | 68 | 1021.8 |
| 20260903211001 | 66 | 237 | 2.0 | 0.0 | 0.00 | 0.00 | 0.00 | 68 | 1021.8 |
| 20260903210502 | 66 | 220 | 2.0 | 0.0 | 0.00 | 0.00 | 0.00 | 68 | 1021.7 |
| 20260903210002 | 66 | 0 | 0.0 | 0.0 | 0.00 | 0.00 | 0.00 | 69 | 1021.9 |
| 20260903205501 | 66 | 174 | 1.0 | 0.0 | 0.00 | 0.00 | 0.00 | 69 | 1021.8 |
| 20260903205002 | 67 | 179 | 2.0 | 0.0 | 0.00 | 0.00 | 0.00 | 68 | 1021.8 |
| 20260903204503 | 67 | 185 | 2.0 | 0.0 | 0.00 | 0.00 | 0.00 | 67 | 1021.7 |